Canadian, TX

7:07 PM CST on December 05, 2019 (GMT -0600)
Hemphill County

Weather History for KHHF - October, 2019

Change the Weather History Date:

Thursday, October 3, 2019

  Actual Average (KPPA) Record (KPPA)
Temperature  
Mean Temperature 57 °F -  
Max Temperature 62 °F 78 °F 97 °F (2018)
Min Temperature 51 °F 52 °F 41 °F (1968)
Degree Days  
Heating Degree Days 8    
Growing Degree Days 7 (Base 50)    
Moisture  
Dew Point 53 °F    
Average Humidity 96    
Maximum Humidity 98    
Minimum Humidity 94    
Precipitation  
Precipitation 1.57 in - - ()
Sea Level Pressure  
Sea Level Pressure 30.22 in    
Wind  
Wind Speed 8 mph (NE)    
Max Wind Speed 15 mph    
Max Gust Speed 23 mph    
Visibility 8 miles    
Events Rain , Thunderstorm    
Averages and records for this station are not official NWS values.
T = Trace of Precipitation, MM = Missing Value Source: NWS Daily Summary

Daily Weather History Graph

Daily Weather History Graph

Search for Another Location

Airport or City:

Astronomy

Oct. 03, 2019 Rise Set
Actual Time 7:38 AM CDT 7:22 PM CDT
Civil Twilight 7:12 AM CDT 7:48 PM CDT
Nautical Twilight 6:42 AM CDT 8:17 PM CDT
Astronomical Twilight 6:13 AM CDT 8:47 PM CDT
Moon 1:01 PM CDT (10/3) 11:13 PM CDT (10/3)
Length of Visible Light 12h 35m
Length of Day
11h 44m
Waxing Crescent, 30% of the Moon is Illuminated
Oct 3
Waxing Crescent
Oct 5
First Quarter
Oct 13
Full
Oct 21
Last Quarter
Oct 27
New

Hourly Weather History & Observations

Time (CDT) Temp. Dew Point Humidity Pressure Visibility Wind Dir Wind Speed Gust Speed Precip Events Conditions
12:15 AM 63.0 °F 61.3 °F 94% 30.04 in 7.0 mi NE 8.1 mph - N/A   Overcast
12:35 AM 62.6 °F 61.2 °F 95% 30.05 in 7.0 mi NE 8.1 mph - N/A Thunderstorm Overcast
12:55 AM 62.4 °F 61.0 °F 95% 30.06 in 4.0 mi NE 4.6 mph - 0.02 in Rain , Thunderstorm Heavy Thunderstorms and Rain
1:15 AM 61.7 °F 61.0 °F 97% 30.05 in 4.0 mi ENE 6.9 mph - 0.18 in Rain , Thunderstorm Light Thunderstorms and Rain
1:35 AM 61.5 °F 60.8 °F 97% 30.05 in 7.0 mi NE 3.5 mph - 0.18 in Thunderstorm Thunderstorm
1:55 AM 61.5 °F 60.8 °F 97% 30.05 in 10.0 mi NE 8.1 mph - 0.18 in Rain , Thunderstorm Rain
2:15 AM 61.2 °F 60.4 °F 97% 30.07 in 10.0 mi NNE 6.9 mph - N/A Thunderstorm Overcast
2:35 AM 61.2 °F 60.1 °F 96% 30.09 in 10.0 mi NE 6.9 mph - N/A Thunderstorm Overcast
2:55 AM 60.8 °F 59.9 °F 97% 30.10 in 10.0 mi NNE 8.1 mph - N/A Thunderstorm Thunderstorm
3:15 AM 60.3 °F 59.2 °F 96% 30.11 in 10.0 mi NNE 12.7 mph - N/A   Overcast
3:35 AM 58.6 °F 57.4 °F 96% 30.11 in 10.0 mi NNE 11.5 mph - N/A Thunderstorm Overcast
3:55 AM 57.7 °F 56.3 °F 95% 30.12 in 10.0 mi NE 15.0 mph 18.4 mph N/A Thunderstorm Overcast
4:15 AM 56.7 °F 55.4 °F 96% 30.15 in 10.0 mi NNE 15.0 mph 21.9 mph N/A Thunderstorm Thunderstorm
4:35 AM 56.1 °F 54.7 °F 95% 30.14 in 10.0 mi NE 15.0 mph 23.0 mph N/A Rain , Thunderstorm Light Thunderstorms and Rain
4:55 AM 55.6 °F 54.5 °F 96% 30.15 in 5.0 mi NE 13.8 mph 20.7 mph 0.05 in   Overcast
5:15 AM 55.4 °F 54.1 °F 96% 30.16 in 10.0 mi NE 10.4 mph - 0.02 in Rain , Thunderstorm Light Thunderstorms and Rain
5:35 AM 55.0 °F 54.1 °F 97% 30.17 in 10.0 mi NE 10.4 mph - 0.03 in Rain , Thunderstorm Thunderstorms and Rain
5:55 AM 54.9 °F 54.0 °F 97% 30.18 in 7.0 mi NNE 12.7 mph - 0.09 in   Overcast
6:15 AM 54.9 °F 54.1 °F 97% 30.19 in 7.0 mi NNE 11.5 mph 16.1 mph 0.05 in Rain , Thunderstorm Thunderstorms and Rain
6:35 AM 53.6 °F 52.9 °F 97% 30.21 in 7.0 mi North 12.7 mph 20.7 mph 0.12 in Rain , Thunderstorm Thunderstorms and Rain
6:55 AM 53.1 °F 52.2 °F 97% 30.20 in 7.0 mi NNE 10.4 mph - 0.18 in Rain , Thunderstorm Thunderstorms and Rain
7:15 AM 53.1 °F 52.3 °F 97% 30.21 in 7.0 mi NE 8.1 mph - 0.06 in Rain , Thunderstorm Thunderstorms and Rain
7:35 AM 53.1 °F 52.3 °F 97% 30.20 in 5.0 mi NNE 9.2 mph - 0.13 in Rain Heavy Rain
7:55 AM 52.7 °F 52.0 °F 97% 30.22 in 7.0 mi NNE 9.2 mph - 0.22 in Rain , Thunderstorm Rain
8:15 AM 52.7 °F 51.8 °F 97% 30.23 in 7.0 mi NE 13.8 mph - 0.05 in Rain Rain
8:35 AM 52.7 °F 51.8 °F 97% 30.22 in 10.0 mi NNE 11.5 mph - 0.08 in Rain Rain
8:55 AM 52.3 °F 51.4 °F 97% 30.25 in 10.0 mi NNE 9.2 mph - 0.08 in   Light Drizzle
9:35 AM 52.3 °F 51.4 °F 97% 30.26 in 10.0 mi NNE 11.5 mph - 0.02 in   Drizzle
9:55 AM 52.0 °F 51.1 °F 97% 30.25 in 10.0 mi NE 10.4 mph - 0.02 in Rain Rain
10:15 AM 52.0 °F 51.1 °F 97% 30.27 in 4.0 mi NE 8.1 mph - 0.08 in Rain Heavy Rain
10:35 AM 52.0 °F 51.3 °F 97% 30.27 in 4.0 mi NE 8.1 mph - 0.18 in Rain Heavy Rain
10:55 AM 51.8 °F 51.3 °F 98% 30.27 in 5.0 mi NNE 8.1 mph - 0.26 in Rain Rain
11:15 AM 51.8 °F 51.1 °F 97% 30.30 in 7.0 mi North 3.5 mph - 0.03 in Rain Rain
11:35 AM 52.3 °F 51.8 °F 98% 30.30 in 7.0 mi North 3.5 mph - 0.07 in Rain Rain
11:55 AM 52.3 °F 51.8 °F 98% 30.29 in 7.0 mi NNE 6.9 mph - 0.09 in Rain Rain
12:15 PM 52.3 °F 51.8 °F 98% 30.28 in 5.0 mi NNE 8.1 mph - 0.05 in Rain Rain
12:35 PM 52.3 °F 51.8 °F 98% 30.29 in 10.0 mi NNE 9.2 mph - 0.06 in Rain Rain
12:55 PM 52.3 °F 51.6 °F 97% 30.28 in 10.0 mi NNE 10.4 mph - 0.07 in Rain Light Rain
1:15 PM 51.8 °F 50.9 °F 97% 30.30 in 7.0 mi North 9.2 mph - 0.02 in Rain Rain
1:35 PM 52.3 °F 51.4 °F 97% 30.29 in 10.0 mi NE 6.9 mph - 0.03 in Rain Light Rain
1:55 PM 51.8 °F 50.9 °F 97% 30.28 in 5.0 mi NNE 9.2 mph - 0.09 in Rain Heavy Rain
2:15 PM 51.8 °F 50.9 °F 97% 30.28 in 7.0 mi NNE 6.9 mph - 0.04 in Rain Rain
2:35 PM 51.8 °F 51.1 °F 97% 30.26 in 10.0 mi NNE 8.1 mph - 0.06 in Rain Light Rain
2:55 PM 51.8 °F 51.1 °F 97% 30.26 in 10.0 mi North 5.8 mph - 0.08 in Rain Rain
3:15 PM 52.2 °F 51.4 °F 97% 30.26 in 10.0 mi NNE 9.2 mph - 0.01 in Rain Light Rain
3:35 PM 52.0 °F 51.3 °F 97% 30.26 in 10.0 mi NE 6.9 mph - 0.03 in Rain Rain
3:55 PM 52.0 °F 51.1 °F 97% 30.26 in 10.0 mi NNE 9.2 mph - 0.05 in Rain Light Rain
4:15 PM 51.8 °F 50.9 °F 97% 30.26 in 7.0 mi North 4.6 mph - 0.02 in Rain Rain
4:35 PM 52.2 °F 51.4 °F 97% 30.25 in 10.0 mi NNE 6.9 mph - 0.04 in Rain Rain
4:55 PM 52.3 °F 51.4 °F 97% 30.25 in 10.0 mi NNE 6.9 mph - 0.05 in Rain Light Rain
5:15 PM 52.5 °F 51.8 °F 97% 30.25 in 10.0 mi North 4.6 mph - N/A Rain Light Rain
5:35 PM 52.3 °F 51.4 °F 97% 30.25 in 10.0 mi NNE 5.8 mph - 0.02 in Rain Light Rain
5:55 PM 52.5 °F 51.8 °F 97% 30.25 in 10.0 mi North 5.8 mph - 0.03 in Rain Light Rain
6:15 PM 52.7 °F 51.8 °F 97% 30.25 in 10.0 mi North 5.8 mph - 0.01 in Rain Light Rain
6:35 PM 52.7 °F 51.8 °F 97% 30.25 in 10.0 mi North 4.6 mph - 0.01 in Rain Light Rain
6:55 PM 52.7 °F 51.8 °F 97% 30.25 in 10.0 mi NNE 4.6 mph - 0.01 in   Overcast
7:10 PM 52.7 °F 51.8 °F 97% 30.25 in 10.0 mi NNE 3.5 mph - N/A   Overcast
7:35 PM 52.7 °F 51.3 °F 95% 30.24 in 10.0 mi NE 3.5 mph - N/A   Overcast
7:55 PM 52.7 °F 51.1 °F 94% 30.24 in 10.0 mi ENE 4.6 mph - N/A   Overcast
8:15 PM 52.7 °F 51.1 °F 94% 30.25 in 10.0 mi East 3.5 mph - N/A   Overcast
8:35 PM 52.7 °F 51.1 °F 94% 30.26 in 10.0 mi East 4.6 mph - N/A   Overcast
8:55 PM 52.9 °F 51.3 °F 94% 30.26 in 10.0 mi Calm Calm - N/A   Overcast
9:15 PM 52.9 °F 51.3 °F 94% 30.26 in 10.0 mi East 4.6 mph - N/A   Overcast
9:35 PM 53.1 °F 51.4 °F 94% 30.26 in 10.0 mi Calm Calm - N/A   Overcast
9:55 PM 53.1 °F 51.6 °F 95% 30.26 in 10.0 mi Calm Calm - N/A   Overcast
10:15 PM 53.1 °F 51.8 °F 95% 30.25 in 10.0 mi East 5.8 mph - N/A   Overcast
10:35 PM 52.9 °F 51.8 °F 96% 30.25 in 10.0 mi East 4.6 mph - N/A   Overcast
10:55 PM 52.7 °F 51.8 °F 97% 30.25 in 10.0 mi East 6.9 mph - N/A   Overcast
11:15 PM 52.7 °F 51.8 °F 97% 30.26 in 5.0 mi East 5.8 mph - N/A   Overcast
11:35 PM 52.7 °F 52.0 °F 97% 30.27 in 7.0 mi Calm Calm - N/A   Overcast
11:55 PM 52.9 °F 52.2 °F 97% 30.27 in 10.0 mi Calm Calm - N/A   Overcast